Cape May County Airport
KWWD : now visible

Airfield :











YOU CAN JOIN US ON...

 
LOGIN :

Register | Disclaimer

   EN    FR    IT 

 









Legend :    VFR   Marginal VFR   IFR   Intensive IFR   Very Intensive IFR
Visi :
Ceiling :
>= 8 km
>= 3000ft
5 to 8 km
1000 to 3000 ft
1500m to 5 km
500 to 1000 ft
800 to 1500m
200 to 500 ft
< 800m
< 200 ft
Symbols :   Thunderstorms  Fog  Heavy snow  Heavy precipitations  Wind > 20 kt






- Airport Elevation : 23 ft


KWWD - Cape May County

CURRENT METAR :
  • 100956Z AUTO 29018G25KT 10SM CLR 07/M05 A2952 RMK AO2 PK WND 28031/0859 SLP999 T00671050

EXPIRED METARs :
  • 100856Z AUTO 29018G27KT 10SM SCT060 07/M04 A2953 RMK AO2 PK WND 27027/0852 SLP000 T00721044 53002
  • 100756Z AUTO 27013G21KT 10SM CLR 07/M01 A2951 RMK AO2 SLP995 T00721011

TAF N/A



MET'MAP, your aeronautical weather chart ! - Copyright ORBIFLY December 2007 - Disclaimer

ORBIFLY MET'MAP TEAM :

Programming & Development : Alexandra Zaïnal
Concept & original design : Baudouin d'Aumeries
Assistance for programming : Marc-Olivier Méhu
Technical & hardware support : Manuel Goepfert

Contact : metmap@orbifly.com




SOURCES & CREDITS :

   NOAA       Earth
Advisory